Weather in Geroyskoye

Russia / Republic of Crimea     45°08′17″N   33°44′47″E
temp.,
°C
wind,
m/s
gust,
m/s
humid.,
%
clouds,
%
prec.,
mm/h
press.,
hPa
HPBL,
m
27 february, sat
sat2700:00+7sw712920 0.0 1023370
03:00+7sw712920 0.0 1021379
06:00+7sw611920 0.0 1020335
09:00+8sw711860 0.0 1019483
12:00+11wsw79741 0.0 1019647
15:00+11wsw67744 0.0 1018575
18:00+10wnw348058 0.0 1017531
21:00+7n698679 0.5 1018585
28 february, sun
sun2800:00+6n6986100 2.0 1019581
03:00+4nnw4877100 2.1 1020539
06:00+4nnw468669 0.1 1020586
09:00+3nw469285 0.3 1021448
12:00+4nnw6876100 0.4 1021750
15:00+5nnw466696 0.4 1022994
18:00+5nw5666100 0.2 1022998
21:00+4wnw367798 0.3 1024418
1 march, mon
mon100:00+3nw3684100 0.1 1025413
03:00+2nw228399 0.2 1025115
06:00+1nw2288100 0.0 102536
09:00+2nw127698 0.1 1026296
12:00+4nnw225899 0.1 10271081
15:00+5nnw235499 0.1 10271198
18:00+5n2257100 0.0 10271090
21:00+3n3573100 0.1 1029236
2 march, tue
tue200:00+2nne228091 0.1 103027
03:00+1nne228459 0.1 103023
06:000nne22850 0.0 103022
09:00+2n11730 0.0 1031148
12:00+5wnw33570 0.0 10311047
15:00+6wsw665837 0.0 10291050
18:00+5wsw687042 0.0 1027795
21:00+4wsw498268 0.0 1026391
3 march, wed
wed300:00+6wsw5108487 0.0 1026461
03:00+4w379188 0.0 1025172
06:00+2n239345 0.0 102541
09:00+4n248423 0.0 1026201
12:00+8nnw56556 0.0 10271219
15:00+9nnw56413 0.0 10271307
18:00+7nnw36470 0.0 1027359
21:00+4nw23630 0.0 102934